STARLINK-4728, 53793

Orbit data source: Space-Track

STARLINK-4728, 53793 is a payload satellite owned by SpaceX/Seattle (US) in LEO that was launched on Sun, 11 Sep 2022 UTC via an FALCON 9 launch vehicle from the Air Force Eastern Test Range (AFETR). Payload-class satellites include a variety of spacecraft equipped with specific instruments for various scientific and technological missions. These include communications satellites like Starlink; space stations such as the ISS; scientific satellites like the Hubble; Earth observation satellites from companies like Planet Labs, Umbra, and HawkEye 360; GPS; miniature CubeSats for education and research; and military/defense satellites.

Loading next visibility...
Identifier
53793, 2022-111W
Orbit
LEO
Country
Flag of USUS
Related business
Manufacturer
SpaceX/Seattle
Mission
Operational Commercial Communications
Bus & Motor
STARLINK, Unknown motor
Mass
305 kg wet, ~290 kg dry
Launch date (UTC)
2022-09-11 (4 years ago)
Launch vehicle
FALCON 9
Launch site
Air Force Eastern Test Range (AFETR)
Object type
Payload
Rocket body
Debris
Shape & HBR
Box + 1 Pan, 10.1 m
Radar Cross Section
13.562 m², Large (>1 m²)

Expand to show TLE details & history
Last TLE update: 10 hours ago

TLE from 10 hours ago
0 STARLINK-4728
1 53793U 22111W   26127.87302983  .00000828  00000-0  70131-4 0  9996
2 53793  53.2186   8.2345 0001479  89.2774 270.8388 15.08835018202621
Epoch: 2026-05-07T20:57Z
TLE epoch observation values (Epoch: 2026-05-07T20:57:09.777Z)
Latitude
0.00002°
Longitude
-171.76915°
Altitude
540.641 km
Speed
7.593 km/s
True Right ascension
00h 32m 56s
True Declination
0° 00' 00"
Sunlit
Object was in daylight at epoch
Visualization orbit readout
Latitude
Unknown
Longitude
Unknown
Altitude
Unknown
Speed
Unknown
Apparent Right ascension
Unknown
Apparent Declination
Unknown
Sunlit
N/A
Visualization observer readout
Local Sidereal Time
14:59:31
Azimuth
Unknown
Elevation
Unknown
Doppler factor
Unknown
Orbital elements
Apogee altitude
541.027 km
Perigee altitude
538.98 km
Semi-major axis
6,918.14 km
Eccentricity
0.00015
Inclination
53.2186°
RAAN
8.2345°
Arg. of periapsis
89.2774°
True anomaly
270.82185°
Mean anomaly
270.8388°
Eccentric anomaly
270.83033°
Mean motion
3.77189 °/min
Orbital period
95.44 mins
BSTAR
0.000070131
Loading maneuver chart data...
Computing Atmospheric mass density...
Loading historical data...
Loading historical data...
Loading historical data...
Loading historical data...
Loading historical data...
Loading historical data...
Loading historical data...

Documentation

Showing up to 5 results
|